Weather in Barda

Russia / Perm Krai     56°55′37″N   55°35′29″E
temp.,
°C
wind,
m/s
gust,
m/s
humid.,
%
clouds,
%
prec.,
mm/h
press.,
hPa
HPBL,
m
4 august, wed
wed423:00+22sse22535 0.0 101013
02:00+20sse225678 0.0 101121
05:00+19s22555 0.0 101015
08:00+22sse276024 0.0 1010198
11:00+28sw46438 0.0 1010593
14:00+31wsw583690 0.0 10101527
17:00+30wnw3544100 0.0 10101299
20:00+26nne116852 0.0 101011
5 august, thu
thu523:00+20ssw3774100 0.2 1011125
02:00+17sse228390 0.4 101031
05:00+17sw3588100 0.4 1011120
08:00+18nw2490100 0.0 1010366
11:00+19nw348188 0.0 1011552
14:00+21nw457097 0.0 1012941
17:00+20nw4671100 0.0 1012933
20:00+19nnw3776100 0.0 1012499
6 august, fri
fri623:00+15nw3987100 0.1 1012258
02:00+13nw26919 0.0 1013124
05:00+13nw39974 0.0 1013200
08:00+16nnw4978100 0.0 1014432
11:00+19nnw585792 0.0 1015754
14:00+22n67419 0.0 10151544
17:00+23nw46405 0.0 10161845
20:00+18nw3657100 0.0 1016158
7 august, sat
sat723:00+14nw2270100 0.0 101713
02:00+12nw117797 0.0 101710
05:00+11nw118098 0.0 101810
08:00+14nnw236760 0.0 1019200
11:00+19nnw354814 0.0 10181110
14:00+20nw454589 0.0 10191328
17:00+17nw365899 0.0 1019482
20:00+17nw256394 0.0 1019149
8 august, sun
sun823:00+14nnw227099 0.0 102025
02:00+13nnw117197 0.0 102020
05:00+10nnw11877 0.0 102111
08:00+13nnw23711 0.0 1021193
11:00+18n33495 0.0 1021843
14:00+21nnw34405 0.0 10201439
17:00+21nnw45395 0.0 10191438
20:00+18n225893 0.0 101926